Time,TemperatureF,DewpointF,PressureIn,WindDirection,WindDirectionDegrees,WindSpeedMPH,WindSpeedGustMPH,Humidity,HourlyPrecipIn,Conditions,Clouds,dailyrainin,SoftwareType,DateUTC
2013-06-14 00:01:00,58.0,41.0,30.07,WNW,288,1.0,7.0,54,0.00,,,0.00,,2013-06-14 04:01:00,
2013-06-14 00:12:00,58.0,41.0,30.07,WNW,292,1.0,8.0,54,0.00,,,0.00,,2013-06-14 04:12:00,
2013-06-14 00:22:00,58.0,41.0,30.06,WNW,302,2.0,8.0,53,0.00,,,0.00,,2013-06-14 04:22:00,
2013-06-14 00:33:00,58.0,41.0,30.06,WNW,302,2.0,8.0,53,0.00,,,0.00,,2013-06-14 04:33:00,
2013-06-14 00:43:00,58.0,41.0,30.07,NW,307,0.0,6.0,53,0.00,,,0.00,,2013-06-14 04:43:00,
2013-06-14 00:53:00,58.0,41.0,30.07,WSW,250,1.0,8.0,53,0.00,,,0.00,,2013-06-14 04:53:00,
2013-06-14 01:02:00,58.0,41.0,30.07,WSW,250,1.0,8.0,53,0.00,,,0.00,,2013-06-14 05:02:00,
2013-06-14 01:11:00,57.0,41.0,30.08,West,279,2.0,5.0,54,0.00,,,0.00,,2013-06-14 05:11:00,
2013-06-14 01:22:00,57.0,41.0,30.08,West,279,2.0,5.0,54,0.00,,,0.00,,2013-06-14 05:22:00,
2013-06-14 01:34:00,57.0,41.0,30.08,WNW,289,1.0,7.0,54,0.00,,,0.00,,2013-06-14 05:34:00,
2013-06-14 01:43:00,57.0,41.0,30.08,WNW,292,1.0,5.0,55,0.00,,,0.00,,2013-06-14 05:43:00,
2013-06-14 01:52:00,56.0,41.0,30.09,WNW,292,0.0,4.0,57,0.00,,,0.00,,2013-06-14 05:52:00,
2013-06-14 02:02:00,56.0,41.0,30.09,WNW,292,0.0,4.0,57,0.00,,,0.00,,2013-06-14 06:02:00,
2013-06-14 02:12:00,56.0,41.0,30.09,WNW,292,0.0,3.0,57,0.00,,,0.00,,2013-06-14 06:12:00,
2013-06-14 02:22:00,55.0,41.0,30.09,WNW,293,0.0,3.0,58,0.00,,,0.00,,2013-06-14 06:22:00,
2013-06-14 02:33:00,55.0,41.0,30.09,WNW,293,0.0,3.0,58,0.00,,,0.00,,2013-06-14 06:33:00,
2013-06-14 02:43:00,55.0,41.0,30.09,NNE,22,1.0,5.0,60,0.00,,,0.00,,2013-06-14 06:43:00,
2013-06-14 02:52:00,54.0,41.0,30.09,NNE,19,0.0,5.0,62,0.00,,,0.00,,2013-06-14 06:52:00,
2013-06-14 03:02:00,54.0,41.0,30.09,NNE,19,0.0,5.0,62,0.00,,,0.00,,2013-06-14 07:02:00,
2013-06-14 03:12:00,54.0,41.0,30.09,NNE,15,2.0,5.0,62,0.00,,,0.00,,2013-06-14 07:12:00,
2013-06-14 03:22:00,53.0,41.0,30.09,NNE,19,1.0,6.0,63,0.00,,,0.00,,2013-06-14 07:22:00,
2013-06-14 03:33:00,53.0,41.0,30.09,NNE,19,1.0,6.0,63,0.00,,,0.00,,2013-06-14 07:33:00,
2013-06-14 03:43:00,52.0,39.0,30.09,NNE,18,1.0,6.0,62,0.00,,,0.00,,2013-06-14 07:43:00,
2013-06-14 03:53:00,52.0,40.0,30.09,NNE,17,1.0,4.0,64,0.00,,,0.00,,2013-06-14 07:53:00,
2013-06-14 04:02:00,52.0,40.0,30.09,NNE,17,1.0,4.0,64,0.00,,,0.00,,2013-06-14 08:02:00,
2013-06-14 04:12:00,51.0,39.0,30.10,North,349,0.0,4.0,64,0.00,,,0.00,,2013-06-14 08:12:00,
2013-06-14 04:23:00,51.0,39.0,30.10,North,349,0.0,4.0,64,0.00,,,0.00,,2013-06-14 08:23:00,
2013-06-14 04:33:00,51.0,39.0,30.09,NW,308,1.0,4.0,64,0.00,,,0.00,,2013-06-14 08:33:00,
2013-06-14 04:43:00,51.0,40.0,30.09,NW,306,0.0,5.0,65,0.00,,,0.00,,2013-06-14 08:43:00,
2013-06-14 04:53:00,51.0,40.0,30.09,NW,306,0.0,5.0,65,0.00,,,0.00,,2013-06-14 08:53:00,
2013-06-14 05:02:00,50.0,39.0,30.09,NW,308,0.0,3.0,67,0.00,,,0.00,,2013-06-14 09:02:00,
2013-06-14 05:12:00,49.0,39.0,30.09,NW,308,1.0,5.0,69,0.00,,,0.00,,2013-06-14 09:12:00,
2013-06-14 05:22:00,49.0,39.0,30.09,NW,308,1.0,5.0,69,0.00,,,0.00,,2013-06-14 09:22:00,
2013-06-14 05:33:00,49.0,39.0,30.10,NW,307,0.0,4.0,69,0.00,,,0.00,,2013-06-14 09:33:00,
2013-06-14 05:43:00,49.0,39.0,30.10,NW,307,1.0,3.0,67,0.00,,,0.00,,2013-06-14 09:43:00,
2013-06-14 05:53:00,49.0,39.0,30.10,NW,307,1.0,3.0,67,0.00,,,0.00,,2013-06-14 09:53:00,
2013-06-14 06:01:00,48.0,37.0,30.11,NW,307,0.0,3.0,65,0.00,,,0.00,,2013-06-14 10:01:00,
2013-06-14 06:11:00,48.0,37.0,30.11,NW,307,0.0,1.0,65,0.00,,,0.00,,2013-06-14 10:11:00,
2013-06-14 06:22:00,48.0,37.0,30.11,NW,307,0.0,1.0,65,0.00,,,0.00,,2013-06-14 10:22:00,
2013-06-14 06:34:00,47.0,37.0,30.11,NW,307,0.0,1.0,68,0.00,,,0.00,,2013-06-14 10:34:00,
2013-06-14 06:43:00,48.0,36.0,30.11,NW,307,0.0,0.0,63,0.00,,,0.00,,2013-06-14 10:43:00,
2013-06-14 06:52:00,48.0,36.0,30.11,NW,307,0.0,0.0,63,0.00,,,0.00,,2013-06-14 10:52:00,
2013-06-14 07:02:00,49.0,37.0,30.12,NW,307,0.0,1.0,63,0.00,,,0.00,,2013-06-14 11:02:00,
2013-06-14 07:11:00,50.0,38.0,30.11,NW,307,0.0,3.0,62,0.00,,,0.00,,2013-06-14 11:11:00,
2013-06-14 07:22:00,50.0,38.0,30.11,NW,307,0.0,3.0,62,0.00,,,0.00,,2013-06-14 11:22:00,
2013-06-14 07:32:00,50.0,38.0,30.12,WNW,302,0.0,5.0,62,0.00,,,0.00,,2013-06-14 11:32:00,
2013-06-14 07:43:00,51.0,38.0,30.13,NW,308,1.0,5.0,61,0.00,,,0.00,,2013-06-14 11:43:00,
2013-06-14 07:52:00,51.0,38.0,30.13,NW,308,1.0,5.0,61,0.00,,,0.00,,2013-06-14 11:52:00,
2013-06-14 08:02:00,51.0,38.0,30.14,WNW,298,1.0,7.0,61,0.00,,,0.00,,2013-06-14 12:02:00,
2013-06-14 08:12:00,52.0,38.0,30.14,NW,304,0.0,5.0,59,0.00,,,0.00,,2013-06-14 12:12:00,
2013-06-14 08:22:00,52.0,38.0,30.14,NW,304,0.0,5.0,59,0.00,,,0.00,,2013-06-14 12:22:00,
2013-06-14 08:33:00,53.0,39.0,30.14,NNE,29,0.0,5.0,59,0.00,,,0.00,,2013-06-14 12:33:00,
2013-06-14 08:43:00,54.0,39.0,30.14,NNE,29,2.0,5.0,56,0.00,,,0.00,,2013-06-14 12:43:00,
2013-06-14 08:52:00,54.0,39.0,30.14,NNE,29,2.0,5.0,56,0.00,,,0.00,,2013-06-14 12:52:00,
2013-06-14 09:02:00,55.0,38.0,30.14,NNW,346,0.0,5.0,52,0.00,,,0.00,,2013-06-14 13:02:00,
2013-06-14 09:11:00,57.0,38.0,30.14,NNW,345,0.0,5.0,49,0.00,,,0.00,,2013-06-14 13:11:00,
2013-06-14 09:22:00,57.0,38.0,30.14,NNW,345,0.0,5.0,49,0.00,,,0.00,,2013-06-14 13:22:00,
2013-06-14 09:33:00,58.0,39.0,30.14,NNE,23,2.0,5.0,49,0.00,,,0.00,,2013-06-14 13:33:00,
2013-06-14 09:43:00,59.0,41.0,30.14,NE,46,3.0,6.0,51,0.00,,,0.00,,2013-06-14 13:43:00,
2013-06-14 09:53:00,59.0,41.0,30.14,NE,46,3.0,6.0,51,0.00,,,0.00,,2013-06-14 13:53:00,
2013-06-14 10:02:00,60.0,41.0,30.15,NE,47,3.0,5.0,50,0.00,,,0.00,,2013-06-14 14:02:00,
2013-06-14 10:11:00,60.0,39.0,30.14,NE,47,2.0,5.0,45,0.00,,,0.00,,2013-06-14 14:11:00,
2013-06-14 10:22:00,60.0,39.0,30.14,NE,47,2.0,5.0,45,0.00,,,0.00,,2013-06-14 14:22:00,
2013-06-14 10:34:00,59.0,41.0,30.14,NE,47,2.0,5.0,51,0.00,,,0.00,,2013-06-14 14:34:00,
2013-06-14 10:43:00,59.0,43.0,30.14,NE,47,3.0,5.0,56,0.00,,,0.00,,2013-06-14 14:43:00,
2013-06-14 10:52:00,59.0,43.0,30.14,NE,47,3.0,5.0,56,0.00,,,0.00,,2013-06-14 14:52:00,
2013-06-14 11:01:00,59.0,41.0,30.14,NE,46,3.0,5.0,51,0.00,,,0.00,,2013-06-14 15:01:00,
2013-06-14 11:11:00,59.0,38.0,30.14,NNE,32,3.0,6.0,46,0.00,,,0.00,,2013-06-14 15:11:00,
2013-06-14 11:23:00,59.0,38.0,30.14,NNE,32,3.0,6.0,46,0.00,,,0.00,,2013-06-14 15:23:00,
2013-06-14 11:33:00,58.0,38.0,30.14,NNE,26,3.0,7.0,48,0.00,,,0.00,,2013-06-14 15:33:00,
2013-06-14 11:44:00,59.0,42.0,30.14,NE,36,2.0,6.0,53,0.00,,,0.00,,2013-06-14 15:44:00,
2013-06-14 11:52:00,59.0,42.0,30.14,NE,36,2.0,6.0,53,0.00,,,0.00,,2013-06-14 15:52:00,
2013-06-14 12:01:00,59.0,41.0,30.14,NE,39,2.0,5.0,51,0.00,,,0.00,,2013-06-14 16:01:00,
2013-06-14 12:11:00,60.0,41.0,30.14,NE,40,2.0,6.0,49,0.00,,,0.00,,2013-06-14 16:11:00,
2013-06-14 12:22:00,60.0,41.0,30.14,NE,40,2.0,6.0,49,0.00,,,0.00,,2013-06-14 16:22:00,
2013-06-14 12:33:00,59.0,41.0,30.14,NE,40,2.0,5.0,51,0.00,,,0.00,,2013-06-14 16:33:00,
2013-06-14 12:43:00,59.0,43.0,30.14,NE,43,3.0,5.0,55,0.00,,,0.00,,2013-06-14 16:43:00,
2013-06-14 12:52:00,59.0,43.0,30.14,NE,43,3.0,5.0,55,0.00,,,0.00,,2013-06-14 16:52:00,
2013-06-14 13:02:00,58.0,41.0,30.13,NE,44,2.0,7.0,54,0.00,,,0.00,,2013-06-14 17:02:00,
2013-06-14 13:11:00,56.0,41.0,30.12,NE,46,4.0,7.0,57,0.00,,,0.00,,2013-06-14 17:11:00,
2013-06-14 13:22:00,56.0,41.0,30.12,NE,46,4.0,7.0,57,0.00,,,0.00,,2013-06-14 17:22:00,
2013-06-14 13:34:00,53.0,39.0,30.11,NE,46,3.0,6.0,59,0.00,,,0.00,,2013-06-14 17:34:00,
2013-06-14 13:43:00,54.0,39.0,30.11,NNE,33,2.0,5.0,56,0.00,,,0.00,,2013-06-14 17:43:00,
2013-06-14 13:53:00,54.0,39.0,30.11,NNE,33,2.0,5.0,56,0.00,,,0.00,,2013-06-14 17:53:00,
2013-06-14 14:02:00,56.0,43.0,30.11,NE,34,0.0,5.0,61,0.00,,,0.00,,2013-06-14 18:02:00,
2013-06-14 14:11:00,58.0,40.0,30.10,NNE,33,1.0,6.0,51,0.00,,,0.00,,2013-06-14 18:11:00,
2013-06-14 14:22:00,58.0,40.0,30.10,NNE,33,1.0,6.0,51,0.00,,,0.00,,2013-06-14 18:22:00,
2013-06-14 14:32:00,58.0,43.0,30.10,NE,40,0.0,4.0,57,0.00,,,0.00,,2013-06-14 18:32:00,
2013-06-14 14:43:00,60.0,39.0,30.10,NE,40,2.0,5.0,46,0.00,,,0.00,,2013-06-14 18:43:00,
2013-06-14 14:52:00,60.0,39.0,30.10,NE,40,2.0,5.0,46,0.00,,,0.00,,2013-06-14 18:52:00,
2013-06-14 15:01:00,61.0,43.0,30.09,NE,40,3.0,5.0,51,0.00,,,0.00,,2013-06-14 19:01:00,
2013-06-14 15:11:00,60.0,40.0,30.09,NE,40,2.0,5.0,48,0.00,,,0.00,,2013-06-14 19:11:00,
2013-06-14 15:22:00,60.0,40.0,30.09,NE,40,2.0,5.0,48,0.00,,,0.00,,2013-06-14 19:22:00,
2013-06-14 15:32:00,59.0,43.0,30.09,NE,40,2.0,5.0,55,0.00,,,0.00,,2013-06-14 19:32:00,
2013-06-14 15:43:00,58.0,39.0,30.09,NE,40,2.0,5.0,49,0.00,,,0.00,,2013-06-14 19:43:00,
2013-06-14 15:53:00,58.0,39.0,30.09,NE,40,2.0,5.0,49,0.00,,,0.00,,2013-06-14 19:53:00,
2013-06-14 16:02:00,58.0,41.0,30.09,NE,40,2.0,4.0,54,0.00,,,0.00,,2013-06-14 20:02:00,
2013-06-14 16:11:00,57.0,40.0,30.09,NE,40,2.0,4.0,53,0.00,,,0.00,,2013-06-14 20:11:00,
2013-06-14 16:22:00,57.0,40.0,30.09,NE,40,2.0,4.0,53,0.00,,,0.00,,2013-06-14 20:22:00,
2013-06-14 16:33:00,57.0,38.0,30.08,NE,40,3.0,5.0,49,0.00,,,0.00,,2013-06-14 20:33:00,
2013-06-14 16:43:00,57.0,36.0,30.07,NE,40,0.0,4.0,45,0.00,,,0.00,,2013-06-14 20:43:00,
2013-06-14 16:53:00,57.0,36.0,30.07,NE,40,0.0,4.0,45,0.00,,,0.00,,2013-06-14 20:53:00,
2013-06-14 17:02:00,57.0,38.0,30.06,NE,40,1.0,4.0,49,0.00,,,0.00,,2013-06-14 21:02:00,
2013-06-14 17:11:00,58.0,38.0,30.06,NE,40,2.0,4.0,47,0.00,,,0.00,,2013-06-14 21:11:00,
2013-06-14 17:22:00,58.0,38.0,30.06,NE,40,2.0,4.0,47,0.00,,,0.00,,2013-06-14 21:22:00,
2013-06-14 17:34:00,59.0,39.0,30.06,NE,40,1.0,3.0,48,0.00,,,0.00,,2013-06-14 21:34:00,
2013-06-14 17:42:00,59.0,38.0,30.05,NE,40,2.0,5.0,46,0.00,,,0.00,,2013-06-14 21:42:00,
2013-06-14 17:52:00,59.0,38.0,30.05,NE,40,2.0,5.0,46,0.00,,,0.00,,2013-06-14 21:52:00,
2013-06-14 18:01:00,59.0,36.0,30.04,NE,40,2.0,4.0,42,0.00,,,0.00,,2013-06-14 22:01:00,
2013-06-14 18:11:00,58.0,34.0,30.03,NE,40,2.0,4.0,41,0.00,,,0.00,,2013-06-14 22:11:00,
2013-06-14 18:22:00,58.0,34.0,30.03,NE,40,2.0,4.0,41,0.00,,,0.00,,2013-06-14 22:22:00,
2013-06-14 18:33:00,59.0,37.0,30.03,NE,40,1.0,4.0,43,0.00,,,0.00,,2013-06-14 22:33:00,
2013-06-14 18:43:00,58.0,35.0,30.03,NE,40,1.0,4.0,42,0.00,,,0.00,,2013-06-14 22:43:00,
2013-06-14 18:53:00,58.0,35.0,30.03,NE,40,1.0,4.0,42,0.00,,,0.00,,2013-06-14 22:53:00,
2013-06-14 19:02:00,56.0,33.0,30.02,NE,40,0.0,2.0,42,0.00,,,0.00,,2013-06-14 23:02:00,
2013-06-14 19:11:00,56.0,34.0,30.02,NE,49,0.0,3.0,43,0.00,,,0.00,,2013-06-14 23:11:00,
2013-06-14 19:22:00,56.0,34.0,30.02,NE,49,0.0,3.0,43,0.00,,,0.00,,2013-06-14 23:22:00,
2013-06-14 19:33:00,55.0,36.0,30.02,ENE,57,0.0,4.0,49,0.00,,,0.00,,2013-06-14 23:33:00,
2013-06-14 19:43:00,55.0,36.0,30.02,ENE,57,0.0,4.0,49,0.00,,,0.00,,2013-06-14 23:43:00,
2013-06-14 19:52:00,55.0,36.0,30.02,ENE,57,0.0,4.0,49,0.00,,,0.00,,2013-06-14 23:52:00,
2013-06-14 20:01:00,57.0,35.0,30.02,ENE,57,2.0,4.0,43,0.00,,,0.00,,2013-06-15 00:01:00,
2013-06-14 20:11:00,55.0,33.0,30.02,ENE,57,0.0,3.0,44,0.00,,,0.00,,2013-06-15 00:11:00,
2013-06-14 20:23:00,55.0,33.0,30.02,ENE,57,0.0,3.0,44,0.00,,,0.00,,2013-06-15 00:23:00,
2013-06-14 20:34:00,56.0,33.0,30.01,ENE,57,0.0,2.0,41,0.00,,,0.00,,2013-06-15 00:34:00,
2013-06-14 20:43:00,55.0,32.0,30.01,ENE,57,0.0,3.0,42,0.00,,,0.00,,2013-06-15 00:43:00,
2013-06-14 20:53:00,55.0,32.0,30.01,ENE,57,0.0,3.0,42,0.00,,,0.00,,2013-06-15 00:53:00,
2013-06-14 21:01:00,55.0,32.0,30.01,ENE,57,0.0,3.0,42,0.00,,,0.00,,2013-06-15 01:01:00,
2013-06-14 21:11:00,53.0,32.0,30.01,ENE,57,0.0,1.0,45,0.00,,,0.00,,2013-06-15 01:11:00,
2013-06-14 21:22:00,53.0,32.0,30.01,ENE,57,0.0,1.0,45,0.00,,,0.00,,2013-06-15 01:22:00,
2013-06-14 21:33:00,53.0,32.0,30.01,ENE,57,0.0,1.0,45,0.00,,,0.00,,2013-06-15 01:33:00,
2013-06-14 21:43:00,52.0,35.0,30.02,ENE,57,0.0,0.0,52,0.00,,,0.00,,2013-06-15 01:43:00,
2013-06-14 21:54:00,52.0,37.0,30.01,ENE,57,0.0,2.0,57,0.00,,,0.00,,2013-06-15 01:54:00,
2013-06-14 22:02:00,51.0,37.0,30.01,ENE,57,0.0,1.0,59,0.00,,,0.00,,2013-06-15 02:02:00,
2013-06-14 22:11:00,51.0,37.0,30.01,ENE,57,0.0,1.0,59,0.00,,,0.00,,2013-06-15 02:11:00,
2013-06-14 22:22:00,50.0,38.0,30.01,ENE,57,0.0,0.0,62,0.00,,,0.00,,2013-06-15 02:22:00,
2013-06-14 22:33:00,50.0,33.0,30.01,ENE,57,0.0,0.0,51,0.00,,,0.00,,2013-06-15 02:33:00,
2013-06-14 22:43:00,50.0,33.0,30.01,ENE,57,0.0,0.0,51,0.00,,,0.00,,2013-06-15 02:43:00,
2013-06-14 22:53:00,51.0,36.0,30.02,ENE,57,0.0,0.0,56,0.00,,,0.00,,2013-06-15 02:53:00,
2013-06-14 23:01:00,51.0,35.0,30.02,ENE,57,0.0,0.0,55,0.00,,,0.00,,2013-06-15 03:01:00,
2013-06-14 23:11:00,51.0,33.0,30.01,ENE,57,0.0,0.0,50,0.00,,,0.00,,2013-06-15 03:11:00,
2013-06-14 23:24:00,51.0,33.0,30.01,ENE,57,0.0,0.0,50,0.00,,,0.00,,2013-06-15 03:24:00,
2013-06-14 23:32:00,51.0,35.0,30.01,ENE,57,0.0,2.0,55,0.00,,,0.00,,2013-06-15 03:32:00,
2013-06-14 23:44:00,51.0,37.0,30.00,ENE,57,0.0,1.0,58,0.00,,,0.00,,2013-06-15 03:44:00,
2013-06-14 23:52:00,51.0,37.0,30.00,ENE,57,0.0,1.0,58,0.00,,,0.00,,2013-06-15 03:52:00,